User: anonymous   Login
Location: Bijele Vode
(45.2833°N, 16.2000°E)
Time: 15:51:02
(UTC+00:00)
Language:

Cosmos 1464 Rocket - Orbit

View from above orbital plane
View from above orbital plane
View from above satellite
View from above satellite

Ground track
Ground track

The orbit data is extracted from the following two-line orbital elements,

1 14085U 83048B   20334.42654135  .00000052  00000-0  37517-4 0  9997
2 14085  82.9458 233.5917 0033314 176.1837 183.9581 13.76295877884148
Epoch (UTC): 29 November 2020 10:14:13
Eccentricity: 0.0033314
inclination: 82.9458°
perigee height: 952 km
apogee height: 1001 km
right ascension of ascending node: 233.5917°
argument of perigee: 176.1837°
revolutions per day: 13.76295877
mean anomaly at epoch: 183.9581°
orbit number at epoch: 88414

The dashed part of the orbit path shows where the satellite is in the earth's shadow,  

DLR